www.cux-wetter.de
Wetterdaten: Sonntag, 02.02.2014
Datum Zeit Temp. A. Feuchte A. Luftdruck Regen Wind Richtung Richtung Sonnenschein Solar Taupunkt Windchill Windben
02.02.2014 00:01 4,8 C 88 % 1002,5 hPa 0,0 l/m 22,8 km/h (4 Bft) W-SW 240 0 min 0 W/m 3,0 C -4,5 C 22,8 km/h (4 Bft)
02.02.2014 00:16 4,8 C 88 % 1002,5 hPa 0,0 l/m 24,2 km/h (4 Bft) W-SW 245 0 min 0 W/m 3,0 C -5,0 C 24,2 km/h (4 Bft)
02.02.2014 00:31 4,7 C 88 % 1002,5 hPa 0,0 l/m 20,0 km/h (4 Bft) SW 225 0 min 0 W/m 2,9 C -3,6 C 20,0 km/h (4 Bft)
02.02.2014 00:46 4,7 C 88 % 1002,5 hPa 0,0 l/m 20,6 km/h (4 Bft) SW 230 0 min 0 W/m 2,9 C -3,8 C 20,6 km/h (4 Bft)
02.02.2014 01:01 4,7 C 88 % 1002,5 hPa 0,0 l/m 20,8 km/h (4 Bft) SW 225 0 min 0 W/m 2,9 C -3,9 C 20,8 km/h (4 Bft)
02.02.2014 01:16 4,7 C 88 % 1002,5 hPa 0,0 l/m 20,9 km/h (4 Bft) SW 230 0 min 0 W/m 2,9 C -3,9 C 20,9 km/h (4 Bft)
02.02.2014 01:31 4,7 C 88 % 1002,5 hPa 0,0 l/m 25,2 km/h (4 Bft) SW 220 0 min 0 W/m 2,9 C -5,4 C 25,2 km/h (4 Bft)
02.02.2014 01:46 4,7 C 88 % 1003,5 hPa 0,0 l/m 23,1 km/h (4 Bft) S-SW 210 0 min 0 W/m 2,9 C -4,7 C 23,1 km/h (4 Bft)
02.02.2014 02:01 4,7 C 88 % 1003,5 hPa 0,0 l/m 21,4 km/h (4 Bft) SW 215 0 min 0 W/m 2,9 C -4,1 C 21,4 km/h (4 Bft)
02.02.2014 02:16 4,7 C 87 % 1003,5 hPa 0,0 l/m 21,8 km/h (4 Bft) SW 220 0 min 0 W/m 2,7 C -4,3 C 21,8 km/h (4 Bft)
02.02.2014 02:31 4,7 C 87 % 1003,5 hPa 0,0 l/m 23,7 km/h (4 Bft) SW 220 0 min 0 W/m 2,7 C -4,9 C 23,7 km/h (4 Bft)
02.02.2014 02:46 4,7 C 87 % 1003,5 hPa 0,0 l/m 20,6 km/h (4 Bft) SW 215 0 min 0 W/m 2,7 C -3,8 C 20,6 km/h (4 Bft)
02.02.2014 03:01 4,5 C 87 % 1003,5 hPa 0,0 l/m 17,0 km/h (3 Bft) SW 220 0 min 0 W/m 2,5 C -2,5 C 17,0 km/h (3 Bft)
02.02.2014 03:16 4,5 C 87 % 1003,5 hPa 0,0 l/m 19,0 km/h (3 Bft) SW 220 0 min 0 W/m 2,5 C -3,4 C 19,0 km/h (3 Bft)
02.02.2014 03:31 4,4 C 87 % 1003,5 hPa 0,0 l/m 20,5 km/h (4 Bft) SW 215 0 min 0 W/m 2,4 C -4,1 C 20,5 km/h (4 Bft)
02.02.2014 03:46 4,4 C 86 % 1003,5 hPa 0,0 l/m 18,9 km/h (3 Bft) SW 215 0 min 0 W/m 2,3 C -3,5 C 18,9 km/h (3 Bft)
02.02.2014 04:01 4,4 C 86 % 1003,5 hPa 0,0 l/m 17,6 km/h (3 Bft) S-SW 210 0 min 0 W/m 2,3 C -2,9 C 17,6 km/h (3 Bft)
02.02.2014 04:16 4,4 C 86 % 1003,5 hPa 0,0 l/m 19,0 km/h (3 Bft) SW 220 0 min 0 W/m 2,3 C -3,5 C 19,0 km/h (3 Bft)
02.02.2014 04:31 4,4 C 86 % 1003,5 hPa 0,0 l/m 24,0 km/h (4 Bft) SW 215 0 min 0 W/m 2,3 C -5,4 C 24,0 km/h (4 Bft)
02.02.2014 04:46 4,4 C 86 % 1004,5 hPa 0,0 l/m 20,6 km/h (4 Bft) S-SW 200 0 min 0 W/m 2,3 C -4,2 C 20,6 km/h (4 Bft)
02.02.2014 05:01 4,5 C 85 % 1004,5 hPa 0,0 l/m 23,5 km/h (4 Bft) SW 220 0 min 0 W/m 2,2 C -5,1 C 23,5 km/h (4 Bft)
02.02.2014 05:16 4,5 C 85 % 1004,5 hPa 0,0 l/m 19,1 km/h (3 Bft) S-SW 205 0 min 0 W/m 2,2 C -3,4 C 19,1 km/h (3 Bft)
02.02.2014 05:31 4,5 C 85 % 1004,5 hPa 0,0 l/m 22,8 km/h (4 Bft) SW 225 0 min 0 W/m 2,2 C -4,9 C 22,8 km/h (4 Bft)
02.02.2014 05:46 4,5 C 85 % 1004,5 hPa 0,0 l/m 18,3 km/h (3 Bft) SW 220 0 min 0 W/m 2,2 C -3,1 C 18,3 km/h (3 Bft)
02.02.2014 06:01 4,4 C 85 % 1005,5 hPa 0,0 l/m 21,8 km/h (4 Bft) SW 215 0 min 0 W/m 2,1 C -4,6 C 21,8 km/h (4 Bft)
02.02.2014 06:16 4,4 C 84 % 1005,5 hPa 0,0 l/m 21,1 km/h (4 Bft) SW 215 0 min 0 W/m 1,9 C -4,4 C 21,1 km/h (4 Bft)
02.02.2014 06:31 4,3 C 84 % 1005,5 hPa 0,0 l/m 18,8 km/h (3 Bft) S-SW 210 0 min 0 W/m 1,8 C -3,6 C 18,8 km/h (3 Bft)
02.02.2014 06:46 4,3 C 84 % 1005,5 hPa 0,0 l/m 18,8 km/h (3 Bft) S-SW 205 0 min 0 W/m 1,8 C -3,6 C 18,8 km/h (3 Bft)
02.02.2014 07:01 4,3 C 84 % 1005,5 hPa 0,0 l/m 20,4 km/h (4 Bft) S-SW 205 0 min 0 W/m 1,8 C -4,2 C 20,4 km/h (4 Bft)
02.02.2014 07:16 4,2 C 84 % 1005,5 hPa 0,0 l/m 20,6 km/h (4 Bft) S-SW 205 0 min 0 W/m 1,7 C -4,4 C 20,6 km/h (4 Bft)
02.02.2014 07:31 4,0 C 84 % 1005,5 hPa 0,0 l/m 17,3 km/h (3 Bft) SW 220 0 min 0 W/m 1,5 C -3,3 C 17,3 km/h (3 Bft)
02.02.2014 07:46 4,0 C 84 % 1005,5 hPa 0,0 l/m 15,8 km/h (3 Bft) S-SW 205 0 min 0 W/m 1,5 C -2,5 C 15,8 km/h (3 Bft)
02.02.2014 08:01 4,1 C 84 % 1006,5 hPa 0,0 l/m 18,1 km/h (3 Bft) S-SW 205 0 min 0 W/m 1,6 C -3,5 C 18,1 km/h (3 Bft)
02.02.2014 08:16 3,9 C 84 % 1006,5 hPa 0,0 l/m 16,7 km/h (3 Bft) S-SW 205 0 min 0 W/m 1,4 C -3,1 C 16,7 km/h (3 Bft)
02.02.2014 08:31 3,7 C 84 % 1006,5 hPa 0,0 l/m 16,6 km/h (3 Bft) S-SW 200 0 min 0 W/m 1,3 C -3,3 C 16,6 km/h (3 Bft)
02.02.2014 08:46 3,6 C 85 % 1006,5 hPa 0,0 l/m 17,1 km/h (3 Bft) S-SW 195 0 min 0 W/m 1,3 C -3,7 C 17,1 km/h (3 Bft)
02.02.2014 09:01 3,7 C 85 % 1006,5 hPa 0,0 l/m 17,1 km/h (3 Bft) S-SW 195 0 min 0 W/m 1,4 C -3,6 C 17,1 km/h (3 Bft)
02.02.2014 09:16 3,7 C 85 % 1006,5 hPa 0,0 l/m 20,6 km/h (4 Bft) S 185 0 min 0 W/m 1,4 C -5,1 C 20,6 km/h (4 Bft)
02.02.2014 09:31 3,7 C 85 % 1007,5 hPa 0,0 l/m 19,7 km/h (3 Bft) S-SW 210 0 min 0 W/m 1,4 C -4,7 C 19,7 km/h (3 Bft)
02.02.2014 09:46 4,0 C 85 % 1007,5 hPa 0,0 l/m 23,8 km/h (4 Bft) SW 215 0 min 0 W/m 1,7 C -5,9 C 23,8 km/h (4 Bft)
02.02.2014 10:01 4,3 C 85 % 1007,5 hPa 0,0 l/m 24,0 km/h (4 Bft) SW 215 0 min 0 W/m 2,0 C -5,6 C 24,0 km/h (4 Bft)
02.02.2014 10:16 4,6 C 85 % 1007,5 hPa 0,0 l/m 24,8 km/h (4 Bft) SW 220 0 min 0 W/m 2,3 C -5,4 C 24,8 km/h (4 Bft)
02.02.2014 10:31 5,2 C 84 % 1007,5 hPa 0,0 l/m 27,1 km/h (5 Bft) W-SW 245 0 min 0 W/m 2,7 C -5,3 C 27,1 km/h (5 Bft)
02.02.2014 10:46 5,6 C 83 % 1007,5 hPa 0,0 l/m 30,2 km/h (5 Bft) W-SW 255 0 min 0 W/m 2,9 C -5,6 C 30,2 km/h (5 Bft)
02.02.2014 11:01 5,8 C 82 % 1008,5 hPa 0,0 l/m 26,9 km/h (4 Bft) SW 235 0 min 0 W/m 3,0 C -4,4 C 26,9 km/h (4 Bft)
02.02.2014 11:16 6,2 C 82 % 1008,5 hPa 0,0 l/m 24,1 km/h (4 Bft) SW 230 0 min 0 W/m 3,4 C -3,0 C 24,1 km/h (4 Bft)
02.02.2014 11:31 6,2 C 80 % 1008,5 hPa 0,0 l/m 30,6 km/h (5 Bft) W 265 0 min 0 W/m 3,0 C -4,8 C 30,6 km/h (5 Bft)
02.02.2014 11:46 6,4 C 80 % 1008,5 hPa 0,0 l/m 28,1 km/h (5 Bft) W 260 0 min 0 W/m 3,2 C -3,9 C 28,1 km/h (5 Bft)
02.02.2014 12:01 6,6 C 80 % 1008,5 hPa 0,0 l/m 25,1 km/h (4 Bft) W 260 0 min 0 W/m 3,4 C -2,8 C 25,1 km/h (4 Bft)
02.02.2014 12:16 6,9 C 79 % 1009,5 hPa 0,0 l/m 25,9 km/h (4 Bft) SW 230 0 min 0 W/m 3,5 C -2,6 C 25,9 km/h (4 Bft)
02.02.2014 12:31 7,2 C 79 % 1009,5 hPa 0,0 l/m 23,7 km/h (4 Bft) SW 220 0 min 0 W/m 3,8 C -1,6 C 23,7 km/h (4 Bft)
02.02.2014 12:46 7,6 C 77 % 1009,5 hPa 0,0 l/m 29,2 km/h (5 Bft) SW 225 0 min 0 W/m 3,8 C -2,5 C 29,2 km/h (5 Bft)
02.02.2014 13:01 7,9 C 76 % 1009,5 hPa 0,0 l/m 25,9 km/h (4 Bft) W-SW 250 0 min 0 W/m 3,9 C -1,3 C 25,9 km/h (4 Bft)
02.02.2014 13:16 8,1 C 75 % 1009,5 hPa 0,0 l/m 23,8 km/h (4 Bft) W 260 0 min 0 W/m 3,9 C -0,4 C 23,8 km/h (4 Bft)
02.02.2014 13:31 8,4 C 74 % 1009,5 hPa 0,0 l/m 26,5 km/h (4 Bft) W-SW 250 0 min 0 W/m 4,0 C -0,7 C 26,5 km/h (4 Bft)
02.02.2014 13:46 8,4 C 74 % 1009,5 hPa 0,0 l/m 25,4 km/h (4 Bft) W-SW 250 0 min 0 W/m 4,0 C -0,4 C 25,4 km/h (4 Bft)
02.02.2014 14:01 8,4 C 74 % 1009,5 hPa 0,0 l/m 20,5 km/h (4 Bft) SW 230 0 min 0 W/m 4,0 C 1,0 C 20,5 km/h (4 Bft)
02.02.2014 14:16 8,4 C 74 % 1009,5 hPa 0,0 l/m 23,4 km/h (4 Bft) W 260 0 min 0 W/m 4,0 C 0,1 C 23,4 km/h (4 Bft)
02.02.2014 14:31 8,4 C 73 % 1009,5 hPa 0,0 l/m 21,9 km/h (4 Bft) SW 230 0 min 0 W/m 3,8 C 0,6 C 21,9 km/h (4 Bft)
02.02.2014 14:46 8,4 C 73 % 1009,5 hPa 0,0 l/m 17,8 km/h (3 Bft) SW 230 0 min 0 W/m 3,8 C 2,0 C 17,8 km/h (3 Bft)
02.02.2014 15:01 8,3 C 73 % 1009,5 hPa 0,0 l/m 21,2 km/h (4 Bft) SW 235 0 min 0 W/m 3,8 C 0,7 C 21,2 km/h (4 Bft)
02.02.2014 15:16 8,2 C 73 % 1009,5 hPa 0,0 l/m 23,3 km/h (4 Bft) SW 215 0 min 0 W/m 3,7 C -0,1 C 23,3 km/h (4 Bft)
02.02.2014 15:31 8,2 C 73 % 1010,5 hPa 0,0 l/m 21,6 km/h (4 Bft) SW 215 0 min 0 W/m 3,7 C 0,4 C 21,6 km/h (4 Bft)
02.02.2014 15:46 8,0 C 73 % 1010,5 hPa 0,0 l/m 19,8 km/h (3 Bft) SW 220 0 min 0 W/m 3,5 C 0,8 C 19,8 km/h (3 Bft)
02.02.2014 16:01 7,8 C 73 % 1010,5 hPa 0,0 l/m 17,8 km/h (3 Bft) SW 215 0 min 0 W/m 3,3 C 1,3 C 17,8 km/h (3 Bft)
02.02.2014 16:16 7,6 C 74 % 1010,5 hPa 0,0 l/m 15,2 km/h (3 Bft) SW 220 0 min 0 W/m 3,3 C 2,1 C 15,2 km/h (3 Bft)
02.02.2014 16:31 7,2 C 74 % 1010,5 hPa 0,0 l/m 18,8 km/h (3 Bft) SW 225 0 min 0 W/m 2,9 C 0,1 C 18,8 km/h (3 Bft)
02.02.2014 16:46 7,1 C 74 % 1011,5 hPa 0,0 l/m 15,6 km/h (3 Bft) S-SW 200 0 min 0 W/m 2,8 C 1,3 C 15,6 km/h (3 Bft)
02.02.2014 17:01 6,8 C 74 % 1011,5 hPa 0,0 l/m 11,3 km/h (2 Bft) S-SW 195 0 min 0 W/m 2,5 C 3,2 C 11,3 km/h (2 Bft)
02.02.2014 17:16 6,6 C 75 % 1011,5 hPa 0,0 l/m 12,0 km/h (2 Bft) SW 215 0 min 0 W/m 2,5 C 2,6 C 12,0 km/h (2 Bft)
02.02.2014 17:31 6,3 C 75 % 1011,5 hPa 0,0 l/m 16,1 km/h (3 Bft) SW 220 0 min 0 W/m 2,2 C 0,1 C 16,1 km/h (3 Bft)
02.02.2014 17:46 6,2 C 75 % 1011,5 hPa 0,0 l/m 19,5 km/h (3 Bft) S-SW 210 0 min 0 W/m 2,1 C -1,4 C 19,5 km/h (3 Bft)
02.02.2014 18:01 6,0 C 76 % 1011,5 hPa 0,0 l/m 15,1 km/h (3 Bft) S-SW 210 0 min 0 W/m 2,1 C 0,2 C 15,1 km/h (3 Bft)
02.02.2014 18:16 5,8 C 76 % 1011,5 hPa 0,0 l/m 13,1 km/h (3 Bft) S-SW 210 0 min 0 W/m 1,9 C 1,0 C 13,1 km/h (3 Bft)
02.02.2014 18:31 5,7 C 76 % 1012,5 hPa 0,0 l/m 13,1 km/h (3 Bft) SW 215 0 min 0 W/m 1,8 C 0,9 C 13,1 km/h (3 Bft)
02.02.2014 18:46 5,6 C 77 % 1012,5 hPa 0,0 l/m 8,5 km/h (2 Bft) S 190 0 min 0 W/m 1,9 C 3,8 C 8,5 km/h (2 Bft)
02.02.2014 19:01 5,3 C 76 % 1012,5 hPa 0,0 l/m 10,1 km/h (2 Bft) S 190 0 min 0 W/m 1,4 C 2,3 C 10,1 km/h (2 Bft)
02.02.2014 19:16 5,1 C 77 % 1012,5 hPa 0,0 l/m 10,1 km/h (2 Bft) S-SW 195 0 min 0 W/m 1,4 C 2,1 C 10,1 km/h (2 Bft)
02.02.2014 19:31 4,9 C 78 % 1012,5 hPa 0,0 l/m 13,6 km/h (3 Bft) SW 220 0 min 0 W/m 1,4 C -0,3 C 13,6 km/h (3 Bft)
02.02.2014 19:46 4,9 C 78 % 1012,5 hPa 0,0 l/m 12,6 km/h (3 Bft) SW 215 0 min 0 W/m 1,4 C 0,3 C 12,6 km/h (3 Bft)
02.02.2014 20:01 4,8 C 78 % 1013,5 hPa 0,0 l/m 11,8 km/h (2 Bft) SW 215 0 min 0 W/m 1,3 C 0,7 C 11,8 km/h (2 Bft)
02.02.2014 20:16 4,6 C 78 % 1013,5 hPa 0,0 l/m 10,0 km/h (2 Bft) S-SW 210 0 min 0 W/m 1,1 C 1,6 C 10,0 km/h (2 Bft)
02.02.2014 20:31 4,5 C 78 % 1013,5 hPa 0,0 l/m 10,5 km/h (2 Bft) S-SW 210 0 min 0 W/m 1,0 C 1,2 C 10,5 km/h (2 Bft)
02.02.2014 20:46 4,5 C 79 % 1013,5 hPa 0,0 l/m 11,0 km/h (2 Bft) SW 215 0 min 0 W/m 1,2 C 0,8 C 11,0 km/h (2 Bft)
02.02.2014 21:01 4,6 C 79 % 1013,5 hPa 0,0 l/m 9,3 km/h (2 Bft) S-SW 200 0 min 0 W/m 1,3 C 2,1 C 9,3 km/h (2 Bft)
02.02.2014 21:16 4,3 C 79 % 1014,5 hPa 0,0 l/m 3,6 km/h (1 Bft) S 190 0 min 0 W/m 1,0 C 4,3 C 3,6 km/h (1 Bft)
02.02.2014 21:31 4,2 C 79 % 1014,5 hPa 0,0 l/m 6,3 km/h (2 Bft) S 190 0 min 0 W/m 0,9 C 4,2 C 6,3 km/h (2 Bft)
02.02.2014 21:46 4,1 C 79 % 1014,5 hPa 0,0 l/m 6,9 km/h (2 Bft) S 190 0 min 0 W/m 0,8 C 3,7 C 6,9 km/h (2 Bft)
02.02.2014 22:01 3,9 C 79 % 1014,5 hPa 0,0 l/m 8,5 km/h (2 Bft) S-SW 195 0 min 0 W/m 0,6 C 2,0 C 8,5 km/h (2 Bft)
02.02.2014 22:16 3,0 C 79 % 1014,5 hPa 0,0 l/m 6,8 km/h (2 Bft) S-SO 160 0 min 0 W/m -0,3 C 2,6 C 6,8 km/h (2 Bft)
02.02.2014 22:31 2,9 C 81 % 1014,5 hPa 0,0 l/m 8,3 km/h (2 Bft) S-SO 165 0 min 0 W/m -0,0 C 1,1 C 8,3 km/h (2 Bft)
02.02.2014 22:46 3,2 C 81 % 1015,5 hPa 0,0 l/m 9,4 km/h (2 Bft) S 180 0 min 0 W/m 0,3 C 0,5 C 9,4 km/h (2 Bft)
02.02.2014 23:01 3,3 C 81 % 1015,5 hPa 0,0 l/m 10,1 km/h (2 Bft) S 190 0 min 0 W/m 0,4 C 0,1 C 10,1 km/h (2 Bft)
02.02.2014 23:16 3,4 C 81 % 1015,5 hPa 0,0 l/m 9,4 km/h (2 Bft) S 190 0 min 0 W/m 0,5 C 0,8 C 9,4 km/h (2 Bft)
02.02.2014 23:31 3,5 C 82 % 1015,5 hPa 0,0 l/m 8,9 km/h (2 Bft) S 180 0 min 0 W/m 0,7 C 1,3 C 8,9 km/h (2 Bft)
02.02.2014 23:46 3,4 C 81 % 1015,5 hPa 0,0 l/m 7,2 km/h (2 Bft) S 180 0 min 0 W/m 0,5 C 2,7 C 7,2 km/h (2 Bft)
_ Min-Zeit 22:31 14:31 00:01 - 21:16 - - - - 22:16 09:46 21:16
Minimum _ 2,9 C 73 % 1002,5 hPa - 3,6 km/h (1 Bft) - - - - -0,3 C -5,9 C 3,6 km/h (1 Bft)
_ Max-Zeit 13:31 00:01 22:46 00:01 11:31 - - 00:01 00:01 13:31 21:16 11:31
Maximum _ 8,4 C 88 % 1015,5 hPa 0,0 l/m 30,6 km/h
W (5 Bft)
- - 0 min 0 W/m 4,0 C 4,3 C 30,6 km/h
W (5 Bft)
Durchschnitt _ 5,3 C 81 % 1008,6 hPa #0,0 l/m 18,3 km/h (3 Bft) SW - #0 min. 0 W/m 2,3 C -1,6 C 18,3 km/h (3 Bft)
copyright by Holger Just